DMSP 5D-2 F15 (USA 147)

导读 | 星芒AI

DMSP 5D-2 F15(USA 147)是美国国防气象卫星计划(DMSP)中的一颗卫星,由雷神公司制造,于1999年12月1日发射。该卫星主要任务是为美军提供全球气象数据,包括云层覆盖、风速、温度和海洋表面状况等。搭载多种遥感仪器,如SSMIS(特殊传感器微波成像/测距仪),用于全天候观测。F15卫星在轨运行多年,为军事行动和气象预报提供了重要支持,直至2017年退役。

基本信息
目录编号:
25991
目录名称:
DMSP 5D-2 F15 (USA 147)
国际标识:
1999-067A
轨道中心:
EARTH
卫星名称:
DMSP 5D-2 F15 (USA 147)
卫星全名:
--
卫星状态:
在轨 (已飞行9500 天)
发射日期:
1999-12-12 UTC
国别 :
美国 (US)
星等 :
--
轨道信息
数据来源 国际轨道数据 AOE轨道数据
星历时间 2025-12-15T06:24:35+0800
20小时前
查看轨道信息
2025-12-15T04:00:00+0800
22小时前
查看轨道信息
半长轴 7212.037km 7212.04km
偏心率 0.0010264 0.0010242
轨道倾角 99.021° 99.021°
近地点辐角 162.014° 161.654°
升交点赤经 19.973° 19.872°
平近点角 295.650° 143.928°
近地点 826.499km 826.518km
远地点 841.305km 841.292km
周期 101.589分钟 101.589分钟
每日圈数 14.174767 14.174757
详细信息
使用方式:
暂无
2D轨道图
3D轨道图
轨道高度分析图
轨道倾角分析图
轨道综合分析图
查看轨道综合分析图